GPS BIIR-10 (PRN 22)

Last updated on Nov. 17, 2019, 4:20 a.m. UTC

1 28129U 03058A   19319.75051939  .00000056  00000-0  00000+0 0  9990
2 28129  53.2228 120.8741 0070745 286.9802  72.2472  2.00565607116550
UTC
Height (km)
Latitude
Longitude
Inclination
Orbital Period
UTC large
Height (km)
Speed (km/s)
/
Latitude / Longitude
Inclination (degrees)
Orbital Period (minutes)
Azimuth
Elevation
Range (km)
Doppler Factor
iOS Compass Heading
iOS Angle

Next 30 passes for location: Hong Kong

Rise time Rise Azimuth (degrees) Set time Set Azimuth (degrees) Duration Max altitude (degrees)

No matching passes for this satellites